Overview Statistics Trail Chart Weather Telemetry Raw packets
 

This is the latest recevied weather packets stored in our database for station/object KB1RMA-4. If no packets are shown the sender has not sent any weather packets the latest 10 day(s).

<< 83 84 85 86 87 88 89 >>
Time Temp. Humidity Pressure Rain* Wind** Luminosity Snow
1788025568 24.44° C 41% 1022.3 hPa 0 mm - 627 W/m² -
1788025263 24.44° C 38% 1022.2 hPa 0 mm - 630 W/m² -
1788024962 24.44° C 39% 1022 hPa 0 mm - 640 W/m² -
1788024658 23.89° C 39% 1022 hPa 0 mm - 630 W/m² -
1788024353 23.89° C 39% 1022.2 hPa 0 mm - 653 W/m² -
1788024049 23.89° C 39% 1022.1 hPa 0 mm - 669 W/m² -
1788023748 23.89° C 38% 1022.2 hPa 0 mm - 681 W/m² -
1788023444 23.89° C 40% 1022.2 hPa 0 mm - 683 W/m² -
1788023144 24.44° C 38% 1022.2 hPa 0 mm - 700 W/m² -
1788022839 23.89° C 37% 1022.4 hPa 0 mm - 695 W/m² -
1788022536 23.89° C 42% 1022.5 hPa 0 mm - 692 W/m² -
1788022231 24.44° C 39% 1022.3 hPa 0 mm - 686 W/m² -
1788021929 23.33° C 39% 1022.5 hPa 0 mm - 700 W/m² -
1788021625 23.89° C 42% 1022.5 hPa 0 mm - 707 W/m² -
1788021322 23.89° C 41% 1022.3 hPa 0 mm - 701 W/m² -
1788021018 23.89° C 41% 1022.7 hPa 0 mm - 698 W/m² -
1788020713 23.33° C 43% 1022.4 hPa 0 mm - 714 W/m² -
1788020408 23.89° C 44% 1022.6 hPa 0 mm - 708 W/m² -
1788020105 23.33° C 44% 1022.5 hPa 0 mm - 695 W/m² -
1788019804 23.33° C 43% 1022.8 hPa 0 mm - 694 W/m² -
1788019498 23.89° C 41% 1022.6 hPa 0 mm - 693 W/m² -
1788019196 23.89° C 38% 1022.8 hPa 0 mm - 688 W/m² -
1788018896 23.33° C 42% 1022.8 hPa 0 mm - 676 W/m² -
1788018591 23.89° C 40% 1022.7 hPa 0 mm - 692 W/m² -
1788018289 23.89° C 39% 1022.9 hPa 0 mm - 688 W/m² -

* Rain latest hour (hover to see other rain measurements)
** Current wind speed in m/s (hover to see current wind gust speed)